{"data":{"norad_id":55580,"epoch":"2026-09-20T04:19:40.091232Z","epoch_age_seconds":127773,"freshness":"FRESH","line1":"1 55580U 23020M   26263.18032513  .00000674  00000+0  34018-4 0  9998","line2":"2 55580  43.0021 321.1703 0001458 272.9465  87.1220 15.27572862198952","mean_motion":15.27572862,"eccentricity":0.0001458,"inclination_deg":43.0021,"raan_deg":321.1703,"arg_perigee_deg":272.9465,"mean_anomaly_deg":87.122,"bstar":3.4018e-5,"rev_number":19895,"period_min":94.267189200694,"perigee_km":482.07010581366,"apogee_km":484.07083391187,"semimajor_km":6861.2074698628,"source":"CELESTRAK","updated_at":"2026-09-21T09:00:33.265069Z"}}